Theta_e
325 335 335 338 344 340 339 338 335 337 343 345 344 350 351 350 354 361 349 345 343 349 344 338 339 340 338 337 336 336 336 336 335 335 334 333 333 334 334 333 333 334 335 335 336 337 338 339 340
332 333 334 339 347 344 340 336 336 340 343 345 346 345 351 355 351 350 346 344 344 347 346 343 336 342 342 340 338 336 335 335 335 334 335 335 336 335 335 335 335 334 334 334 334 333 332 332 332
328 332 335 336 343 341 340 336 337 340 342 344 345 347 349 352 348 349 348 347 345 345 352 348 330 337 340 338 337 336 335 335 336 337 337 337 337 337 338 337 337 337 339 340 339 337 336 336 336
334 334 333 338 336 339 337 338 338 338 340 341 343 348 349 349 347 348 346 344 344 344 353 348 333 330 333 338 339 339 338 338 338 338 337 336 336 335 337 338 338 340 342 344 345 345 343 340 339
331 332 333 336 336 338 337 337 337 334 337 340 342 346 349 345 345 346 347 347 346 346 348 346 335 334 332 332 335 336 337 337 337 336 336 336 337 337 337 337 337 337 338 340 343 345 344 343 339
331 332 340 337 337 338 337 336 335 334 337 340 342 345 348 346 348 348 349 350 347 346 347 348 339 335 334 334 333 333 334 335 335 335 335 336 335 335 335 335 335 335 334 334 335 335 335 335 335
331 332 339 337 336 337 336 336 334 331 334 338 340 344 348 347 348 348 347 344 344 344 346 349 350 349 342 342 338 336 335 335 336 337 338 339 339 339 337 336 335 334 333 333 333 334 335 335 336
330 332 334 338 339 335 335 335 334 329 333 337 337 341 348 347 347 346 343 340 340 340 341 340 344 349 352 350 341 340 340 340 340 339 338 339 339 338 340 341 340 340 341 337 334 334 336 339 340
330 330 333 331 338 335 335 335 332 330 333 334 338 339 344 347 345 343 341 341 343 343 345 346 343 342 343 344 345 344 343 342 343 344 346 346 344 344 347 348 346 342 338 332 331 334 340 342 343
329 330 331 330 333 334 334 334 333 332 332 334 338 343 345 346 345 345 343 341 342 343 344 346 346 345 343 341 343 344 344 343 342 344 346 346 346 346 345 342 338 343 340 340 341 341 344 346 347
329 329 328 329 331 333 333 334 333 333 333 334 337 342 345 345 344 342 342 341 340 343 343 343 345 344 341 336 334 331 333 331 333 334 337 340 340 343 340 341 343 343 340 340 339 342 347 344 346
327 327 328 329 328 333 333 333 333 334 334 332 335 339 343 344 341 339 338 339 342 342 341 341 338 335 336 330 328 328 328 327 328 331 332 331 329 331 331 331 332 333 334 335 336 336 336 343 343
326 327 327 328 328 333 332 333 332 335 335 334 336 339 342 343 341 340 340 339 340 337 335 331 331 334 336 331 329 330 329 328 330 328 329 328 329 331 328 328 327 327 327 329 330 332 333 336 339
326 327 327 328 329 331 331 331 333 333 337 336 339 340 342 343 341 340 337 338 337 332 330 332 333 335 333 335 334 330 329 328 327 326 329 328 328 331 328 325 325 325 327 328 328 328 331 330 331
326 326 327 328 330 331 331 334 334 336 339 338 340 340 342 343 342 339 334 333 329 330 332 334 333 333 334 332 331 328 328 326 327 327 326 327 327 325 327 323 321 322 323 321 324 326 327 328 329
325 326 327 329 328 332 331 331 332 336 338 336 341 341 342 344 342 337 333 328 328 330 335 334 329 329 331 332 330 329 328 329 325 326 326 324 325 322 324 322 320 322 322 320 321 321 323 325 327
328 327 328 327 327 328 330 330 337 339 338 335 338 342 343 343 342 337 331 329 330 332 333 332 332 328 332 329 329 327 326 327 327 326 325 324 326 322 322 322 320 321 321 320 320 321 322 320 324
329 328 328 327 328 327 327 327 328 334 333 334 335 340 343 343 341 336 329 330 332 332 333 332 330 330 332 330 328 327 325 325 323 323 322 324 325 325 324 324 320 322 320 319 322 322 319 317 319
326 326 328 328 328 327 327 328 328 328 330 332 334 339 342 342 340 336 329 331 332 332 333 333 332 332 332 331 330 327 326 324 323 322 322 322 323 325 325 324 322 320 318 320 322 322 321 319 317
328 328 329 329 328 329 329 329 328 329 329 331 334 338 341 342 340 333 329 331 332 332 333 334 333 333 334 333 332 331 329 327 326 325 325 325 323 323 322 322 321 321 321 321 322 322 322 320 318
329 329 327 327 327 327 328 328 328 332 332 333 336 338 340 341 338 332 330 330 332 333 333 333 333 335 335 333 329 325 324 321 320 320 321 320 320 319 318 319 318 318 318 317 318 321 321 320 320
329 328 326 326 326 326 326 325 329 329 330 334 335 338 339 338 336 333 332 332 333 333 332 332 330 329 326 326 323 323 321 319 319 317 317 317 317 317 317 316 315 316 316 316 317 317 318 321 321
328 326 326 326 326 327 326 325 331 329 330 331 333 335 337 337 336 336 334 333 331 328 325 323 323 324 324 323 322 321 319 319 317 316 316 316 315 314 314 314 314 315 315 314 316 317 317 317 321
328 328 327 328 326 328 329 324 329 330 328 328 330 331 334 335 335 334 333 330 327 324 323 322 321 320 321 320 319 319 318 318 317 316 315 315 314 314 314 314 314 313 313 312 313 315 315 316 317
329 327 329 330 329 328 327 325 330 328 327 327 328 328 329 331 331 332 332 327 325 322 321 320 319 319 319 318 318 317 316 316 316 315 314 314 314 314 313 313 311 312 311 311 311 311 313 314 315
330 328 330 329 328 327 326 328 331 326 326 325 326 327 329 330 328 328 326 324 323 321 320 319 319 318 318 317 315 315 315 315 313 313 312 312 313 313 313 313 312 312 312 312 311 311 310 311 313
329 330 328 327 329 330 328 327 328 327 327 326 327 327 327 329 328 326 324 322 321 320 319 319 318 317 315 315 315 316 315 314 313 311 311 311 313 314 313 312 312 311 312 311 311 310 310 310 311
329 326 327 332 333 330 327 327 331 328 327 327 326 327 328 327 326 324 322 322 320 319 318 317 316 314 314 316 316 315 313 312 312 312 310 311 310 312 311 311 309 308 308 307 308 310 309 309 311
329 328 329 329 329 331 328 329 328 328 327 327 326 324 326 326 324 323 321 320 319 318 318 316 314 314 315 316 315 314 313 312 311 311 310 311 311 311 311 310 307 307 306 306 306 310 310 309 310
325 326 327 329 331 331 330 330 329 327 326 326 326 326 325 324 323 322 321 319 318 317 316 314 314 315 316 315 314 313 312 312 311 310 310 311 312 310 308 307 306 306 306 306 306 308 309 309 310
Wind_Speed
11 9 10 12 5 5 15 10 16 17 17 12 9 15 17 23 12 7 7 7 6 14 9 10 11 10 10 9 9 8 7 5 5 5 5 6 5 5 5 5 5 5 4 4 3 3 3 4 5
11 13 14 2 4 8 12 18 17 15 9 7 11 8 16 15 18 10 13 8 7 8 9 9 9 9 8 8 8 7 6 5 4 3 2 2 2 2 2 2 2 2 1 1 1 1 2 3 4
10 14 11 7 7 6 15 17 17 13 9 5 16 13 13 13 16 11 11 9 8 9 13 11 10 9 9 9 8 8 6 4 3 2 1 1 1 1 1 1 1 1 2 2 3 3 3 3 4
9 13 8 8 15 16 17 10 8 12 13 8 12 15 10 10 9 14 10 7 7 10 14 9 10 10 9 8 7 6 6 6 5 4 4 3 4 4 4 4 4 4 4 5 5 6 6 6 7
16 11 7 5 16 11 15 10 8 14 12 11 15 19 16 15 14 12 10 9 8 9 9 10 10 9 8 8 8 7 7 6 6 6 6 6 6 7 7 8 8 8 8 8 8 8 9 10 10
13 5 13 3 14 14 10 8 9 12 13 15 18 17 13 13 12 11 10 8 9 8 9 9 9 8 7 7 6 6 5 6 7 7 8 8 9 10 10 11 11 12 11 11 11 11 11 12 12
17 10 19 3 11 14 10 1 12 10 13 10 15 17 11 13 11 10 10 10 9 9 8 8 8 7 5 5 6 6 6 7 8 10 10 11 12 13 13 13 13 13 14 14 14 14 14 14 14
11 8 5 10 3 16 10 7 4 12 13 4 6 13 12 14 12 12 12 10 9 8 8 9 6 9 8 7 2 3 5 6 8 10 11 13 14 14 13 13 14 14 14 15 16 16 15 15 16
12 12 3 3 22 7 8 10 15 10 9 8 6 18 19 16 13 13 12 11 10 8 6 6 8 5 3 6 3 0 4 6 6 6 9 10 11 13 11 14 13 16 18 19 17 16 16 18 20
11 11 10 7 7 12 7 12 11 9 11 12 11 16 17 14 12 10 8 7 9 9 8 7 8 6 6 3 2 1 2 3 6 9 9 12 14 11 12 14 16 14 12 14 14 10 12 16 20
9 10 8 4 8 6 9 8 7 10 9 14 15 14 15 14 10 10 9 8 12 8 8 9 7 5 5 4 3 5 6 6 6 8 9 10 9 11 12 13 9 11 11 13 7 14 14 18 19
9 2 3 5 4 7 8 4 7 6 10 13 16 16 13 11 9 5 7 10 9 9 7 8 7 5 4 5 6 7 8 8 9 8 9 10 11 10 12 12 13 14 13 13 14 16 19 16 20
14 4 4 2 4 6 6 4 6 6 8 4 15 12 12 11 8 7 5 7 7 8 9 8 7 6 5 7 6 6 7 8 8 9 9 10 11 9 12 12 13 14 15 15 17 16 16 15 17
4 3 6 6 6 2 7 7 4 4 6 6 7 11 11 10 9 8 7 9 7 8 9 7 7 5 4 5 6 6 7 8 10 10 10 11 11 9 12 14 13 15 14 16 17 17 16 16 18
3 10 6 7 4 5 7 13 11 6 7 10 10 11 10 9 10 9 10 9 10 9 8 6 5 4 4 4 6 7 8 10 11 11 10 10 11 11 11 14 15 15 14 17 17 17 17 18 15
13 10 13 14 5 6 6 14 19 15 11 12 13 12 11 9 11 10 11 10 10 10 6 4 3 3 4 6 7 9 11 12 14 13 14 14 10 13 13 15 18 15 16 19 18 18 19 17 16
10 12 3 6 2 5 8 14 14 8 8 9 12 13 11 13 12 11 14 12 9 6 4 2 2 4 7 8 10 13 13 14 16 16 16 14 12 17 16 16 17 16 20 21 21 16 17 21 19
2 3 4 7 7 8 13 15 13 15 8 10 13 13 12 14 14 14 15 10 7 5 2 2 4 7 9 11 14 15 17 18 19 19 21 16 16 19 16 16 17 15 20 21 23 18 18 22 23
9 6 8 7 2 6 14 13 11 11 5 11 13 11 12 12 16 19 15 11 6 4 3 5 7 9 11 14 16 18 18 22 24 24 24 22 22 21 11 16 20 19 22 20 20 20 22 20 21
8 10 10 5 4 9 15 16 14 2 12 7 12 11 11 11 12 15 16 11 7 5 6 8 10 11 12 16 16 17 20 22 22 25 25 21 7 11 16 16 19 21 21 22 21 22 21 25 24
10 4 12 13 14 16 18 17 11 5 5 4 7 7 9 11 13 12 13 12 8 7 9 12 11 10 12 13 16 18 19 23 25 22 21 22 17 18 20 20 23 21 20 25 24 20 22 16 29
12 9 11 12 13 11 3 11 10 5 2 3 4 9 10 11 11 12 16 13 8 10 11 8 8 8 9 8 11 11 16 19 19 23 24 24 24 25 27 31 25 22 24 26 26 28 25 23 20
11 10 10 10 11 13 9 8 10 5 3 3 6 8 10 11 10 11 14 1 7 7 8 6 6 8 9 10 12 15 19 21 24 26 28 28 30 30 26 24 24 19 16 21 23 24 25 26 23
9 14 15 13 9 11 9 5 6 9 7 6 5 3 4 8 10 9 2 5 7 5 8 9 10 11 13 15 16 19 21 23 25 27 28 27 24 23 20 15 15 17 17 20 21 22 24 24 24
10 13 8 3 7 5 5 8 11 7 7 6 5 2 2 4 7 3 1 7 6 8 8 13 14 16 17 18 21 23 24 25 25 23 24 23 24 23 21 20 19 16 17 18 18 21 24 26 26
8 9 6 8 9 12 5 3 7 7 5 2 4 6 4 1 8 3 5 6 10 11 12 15 16 18 20 21 23 24 23 19 21 21 25 25 24 24 20 20 20 19 20 19 20 20 21 25 27
10 7 9 8 15 9 2 4 13 6 2 3 4 6 7 4 4 5 6 5 9 13 14 15 17 19 21 23 24 21 18 22 25 24 21 24 24 21 20 21 21 22 20 21 21 22 23 24 24
6 7 5 7 5 8 10 11 10 4 7 6 9 7 5 4 6 6 6 8 9 13 15 16 19 21 23 23 23 21 21 22 23 23 20 21 24 23 20 18 23 25 26 28 25 23 19 22 21
6 7 4 3 7 8 9 6 6 7 8 9 13 13 3 3 6 6 7 11 10 14 17 18 20 22 23 22 23 22 21 22 21 21 20 20 22 23 21 24 30 27 27 23 27 24 18 18 17
7 8 6 6 8 7 7 9 8 4 7 8 10 5 4 4 7 8 11 12 12 15 17 20 20 21 21 22 22 22 21 20 20 20 21 22 22 20 27 30 25 24 23 22 24 23 15 14 14
Wind_Direction
299 273 268 273 3 208 86 94 66 34 70 43 42 57 54 39 49 79 114 104 117 105 126 134 142 140 142 145 146 143 140 137 126 118 117 116 114 110 103 99 97 95 92 88 80 61 41 30 23
278 277 252 234 23 310 69 72 68 61 78 135 69 85 82 63 74 89 100 100 98 119 129 139 147 142 139 137 139 143 146 150 144 132 112 95 104 110 111 99 92 93 102 100 60 20 5 353 350
284 269 275 167 171 98 86 80 68 76 52 17 100 46 48 92 48 97 105 112 109 131 122 144 155 153 154 154 158 160 164 173 170 196 208 253 283 273 266 258 272 282 294 300 306 303 303 307 307
275 242 238 49 69 73 79 72 92 95 106 67 125 98 84 34 85 96 102 120 129 114 109 140 157 159 168 173 170 178 178 189 198 213 236 253 266 266 263 261 264 269 270 276 285 290 292 289 289
252 265 233 106 88 71 67 61 29 65 56 83 96 87 91 89 102 105 106 100 97 93 110 137 150 156 164 178 186 201 213 225 241 251 265 272 276 277 276 274 271 269 270 273 273 272 279 284 286
279 271 33 93 95 88 78 74 84 73 93 109 103 88 86 122 116 119 117 108 101 99 112 127 150 160 173 182 195 210 231 247 253 256 262 268 272 272 271 272 273 275 275 276 276 278 278 278 279
282 291 177 127 124 112 82 349 60 63 79 79 126 105 120 117 114 117 109 111 112 112 111 130 140 157 172 188 201 216 232 251 259 266 270 274 275 274 274 271 271 273 276 276 276 275 273 273 274
288 294 236 109 220 93 109 79 109 88 79 92 126 129 138 120 126 123 117 114 110 105 112 126 165 148 185 148 221 238 255 264 275 280 282 283 283 279 277 284 281 270 272 276 277 276 273 271 268
267 279 171 53 52 125 142 115 72 106 125 108 39 82 108 137 132 124 126 133 117 98 75 55 82 96 79 78 100 266 11 339 328 291 296 308 275 286 266 260 254 283 282 278 276 276 277 273 268
263 277 57 20 122 111 154 133 126 158 133 116 105 103 128 141 138 136 157 94 84 84 76 63 59 81 73 62 45 100 270 337 323 335 329 300 323 304 299 293 276 289 289 289 276 282 280 275 256
258 17 69 98 18 113 140 143 156 179 162 146 139 142 151 156 163 152 137 85 75 92 92 101 95 79 42 42 352 15 23 7 22 24 357 348 324 346 326 325 315 303 312 292 290 280 263 271 283
265 81 318 94 104 251 153 173 167 259 186 137 143 150 159 167 162 123 123 106 104 108 102 93 85 80 52 52 46 54 46 20 22 11 12 359 345 350 345 334 329 319 323 326 300 293 295 301 296
238 134 178 178 225 268 125 207 229 185 86 50 125 150 167 180 159 122 111 93 115 118 101 98 91 94 74 49 53 33 11 14 359 358 10 352 342 349 333 333 324 328 320 314 322 313 316 302 286
86 169 182 205 218 104 262 201 288 143 142 183 136 177 184 177 163 150 155 136 124 119 117 106 93 80 64 47 32 7 3 347 340 339 346 342 337 340 323 322 332 318 318 321 312 306 315 305 304
184 229 195 216 201 221 264 257 199 178 183 192 187 194 195 182 175 191 157 138 138 125 116 96 96 64 36 10 348 340 335 331 325 322 322 322 326 324 325 315 322 322 338 316 312 306 301 295 294
252 253 235 148 190 161 238 284 233 163 189 208 197 203 199 181 198 189 145 139 140 135 122 93 53 18 4 351 338 325 317 317 311 314 312 310 306 316 314 313 314 330 319 315 310 303 304 298 319
187 266 159 162 201 275 214 275 114 171 197 230 218 216 195 202 212 172 164 160 156 141 135 117 352 333 334 323 319 307 302 303 306 301 306 310 312 307 306 303 308 323 305 300 309 323 342 322 320
68 355 167 273 154 221 262 259 252 184 227 235 246 218 210 209 191 175 178 164 162 172 185 290 308 313 314 310 295 292 305 302 306 308 301 298 299 300 312 302 301 304 295 301 310 326 310 309 282
345 312 274 282 3 284 283 290 308 293 252 256 251 221 221 215 189 170 192 180 194 211 260 292 303 299 305 302 308 301 308 308 302 300 297 294 283 273 293 299 302 299 291 299 297 297 300 287 289
293 287 286 327 210 261 279 287 281 281 290 287 263 217 214 206 200 177 201 211 225 254 281 290 288 293 300 301 306 302 297 293 294 290 282 295 324 306 308 310 303 300 296 287 284 282 272 275 279
281 305 340 319 315 282 265 264 222 145 301 276 271 266 214 215 200 186 216 231 254 278 287 283 292 309 304 304 302 302 304 302 302 311 314 307 319 309 306 303 297 293 290 286 287 286 276 274 274
313 13 310 296 296 294 24 297 132 99 174 190 249 249 248 222 199 209 214 231 251 274 290 311 324 313 315 333 319 327 304 307 318 305 302 310 304 299 295 289 288 295 293 288 284 278 279 279 281
358 321 294 293 285 282 210 279 117 161 99 70 209 224 226 252 220 214 233 320 354 315 309 306 306 314 320 326 326 320 318 314 308 306 306 304 296 288 291 296 294 295 307 304 303 298 285 276 273
300 297 286 251 244 234 89 355 75 41 21 8 52 2 240 235 241 222 105 355 282 298 316 312 313 305 311 313 314 314 311 312 307 306 299 297 301 301 300 314 317 311 307 299 297 292 291 282 277
334 347 315 263 216 332 87 303 59 70 44 19 17 42 195 228 249 202 308 270 314 298 306 309 314 313 312 310 311 311 312 307 304 309 309 306 307 307 307 312 309 299 291 290 289 285 284 277 278
309 329 321 323 321 328 206 313 83 80 61 48 360 338 313 247 343 327 300 325 306 323 316 315 315 312 313 309 311 311 311 317 313 309 313 308 299 293 298 301 296 293 292 291 290 287 285 278 276
353 324 1 289 266 259 307 101 133 139 178 197 320 350 318 290 298 274 277 286 317 315 313 314 307 307 314 314 313 313 316 313 309 307 304 297 294 296 298 301 300 300 293 288 286 284 285 283 282
282 350 257 211 291 313 341 308 79 55 22 21 345 304 228 248 277 273 301 291 308 312 306 313 320 318 317 316 315 321 315 311 311 309 301 299 296 294 298 296 297 293 290 288 286 283 287 289 283
305 254 206 311 295 313 300 26 36 29 13 336 319 313 351 253 268 287 313 314 319 308 314 322 322 321 319 322 323 316 312 309 310 306 301 297 298 298 292 289 301 292 290 287 283 283 279 287 280
293 302 328 297 290 269 307 296 58 7 332 346 318 343 7 337 322 314 311 323 318 321 325 325 324 320 322 325 322 319 312 313 310 299 299 302 297 300 304 303 295 289 286 285 283 282 276 282 273